RH
94 88 84 80 79 78 76 73 68 63 62 64 62 60 62 49 32 41 44 32 36 48 35 19 17 20 20 26 29 35 48 54 32 26 25 25 28 30 33 36 33 32 36 35 31
98 99 94 90 86 83 80 78 77 75 71 70 70 67 67 51 45 54 32 17 23 28 23 28 21 20 27 30 34 42 45 30 23 21 25 28 26 32 31 34 37 43 38 34 30
99 98 96 99 97 91 86 81 81 81 81 80 80 76 68 40 50 23 12 11 13 22 24 26 24 21 25 30 33 39 39 33 22 25 26 29 28 36 37 39 36 44 43 37 33
91 93 99 99 99 99 94 90 90 88 89 89 85 82 58 43 57 14 11 12 17 23 22 22 22 24 30 31 29 33 30 28 24 29 29 29 32 36 42 34 37 40 39 32 31
85 91 91 99 99 98 99 95 92 88 92 95 91 74 43 47 40 14 15 12 16 17 19 22 26 26 25 25 22 28 25 27 25 33 32 32 40 41 45 39 41 37 34 34 32
92 80 75 89 95 99 98 98 95 98 99 99 97 63 58 59 16 15 18 15 16 17 25 26 29 29 32 32 28 32 31 33 29 29 35 37 39 41 39 46 44 41 38 33 39
95 61 48 59 70 91 99 99 99 93 99 100 87 56 57 50 16 15 20 16 19 19 24 29 33 31 31 40 39 32 46 50 46 43 41 36 45 52 41 43 49 47 44 38 43
64 68 45 39 40 57 67 71 74 81 97 100 60 54 58 23 19 15 18 23 20 23 25 31 34 42 32 39 54 42 46 67 54 42 51 35 58 39 51 50 54 50 50 44 45
94 69 74 69 53 36 48 59 59 79 98 100 48 53 48 18 16 16 18 23 23 28 32 31 31 41 42 61 80 76 90 77 50 40 59 43 42 46 54 55 59 59 52 51 60
70 98 100 91 50 44 48 61 77 98 70 61 56 54 38 24 19 20 21 22 26 36 42 40 48 59 56 76 86 88 77 67 62 38 56 64 70 55 56 61 65 64 56 76 73
66 98 98 99 99 100 99 88 82 73 55 50 48 42 42 22 19 22 23 24 27 39 71 52 58 68 54 58 60 60 46 58 55 35 40 54 57 53 49 48 70 66 64 71 70
68 80 80 87 92 89 96 81 68 68 88 64 64 54 21 19 32 25 20 22 40 45 44 58 72 51 45 49 62 56 37 38 29 35 35 41 45 59 49 59 74 72 57 68 69
67 76 75 76 83 75 72 83 76 69 89 77 34 21 18 15 20 27 21 24 27 29 33 46 36 33 23 27 35 35 37 35 33 39 37 46 67 87 61 65 47 51 54 73 80
70 71 76 77 91 83 82 78 83 88 86 76 35 20 16 17 25 26 22 22 28 31 24 27 24 25 26 27 30 30 36 37 39 43 60 46 84 69 70 73 38 44 54 76 76
71 70 81 80 90 96 96 92 90 93 90 36 22 17 20 36 65 49 27 27 40 36 30 43 26 28 30 28 22 30 36 38 40 60 70 71 86 66 73 70 53 47 56 72 79
74 78 75 82 96 98 94 89 90 85 96 58 44 46 69 68 63 47 35 27 30 39 37 38 26 27 28 30 30 34 41 48 54 78 96 81 83 78 82 56 49 52 65 69 78
72 84 78 83 95 92 88 86 87 92 60 82 76 68 61 65 68 62 74 70 69 78 85 56 33 32 30 39 38 43 73 86 76 98 79 82 74 80 58 50 70 74 77 75 81
75 80 83 80 89 88 93 78 95 58 78 63 61 60 66 49 57 46 48 74 64 65 88 85 75 38 33 45 48 36 67 80 45 80 60 61 76 63 41 54 74 81 83 74 81
71 86 88 78 85 90 91 91 85 77 69 65 58 78 76 57 60 69 68 66 59 82 85 96 82 36 36 33 30 48 70 57 65 79 71 55 48 42 41 26 49 72 81 82 86
74 90 88 79 83 95 91 90 84 73 77 72 78 87 70 75 73 89 88 69 61 74 66 96 95 45 42 37 38 39 46 73 86 75 53 50 43 58 31 36 59 78 82 86 86
83 93 81 77 92 90 85 77 75 77 76 85 87 84 86 92 98 95 94 87 70 84 75 77 82 64 46 52 51 47 77 57 64 81 80 77 50 76 51 64 78 87 85 91 92
88 98 77 81 90 100 89 76 70 72 79 88 88 87 96 99 91 98 98 96 90 88 81 62 95 100 73 50 45 46 41 53 78 64 89 89 53 81 70 82 97 87 88 90 90
93 93 76 81 96 94 75 74 70 80 88 99 99 99 100 96 95 99 91 85 86 98 94 74 91 93 78 80 53 44 44 59 74 79 70 67 44 66 74 83 85 93 91 91 92
97 94 93 98 98 84 91 74 87 92 94 96 97 96 99 94 93 94 87 91 84 92 96 92 97 93 95 92 80 69 71 54 53 70 72 75 55 44 51 75 80 90 93 92 95
98 91 72 82 92 93 98 82 69 94 99 91 99 100 99 99 92 95 91 95 93 86 99 97 98 96 84 94 97 96 89 73 66 52 52 62 64 61 68 73 89 98 91 92 94
98 94 94 96 85 93 93 93 73 91 98 98 96 94 96 97 93 98 99 98 97 99 99 98 92 97 93 88 93 86 77 65 64 52 53 77 62 59 77 83 82 89 92 95 94
90 79 84 89 97 92 95 85 85 88 88 82 97 98 94 91 100 98 98 100 99 98 97 97 97 96 94 70 75 83 69 69 80 82 59 52 40 64 58 51 85 89 90 97 96
Wind_Speed
19 19 19 18 17 16 16 17 17 18 18 19 21 22 25 24 25 6 2 2 5 9 8 7 6 2 3 2 3 3 2 3 5 2 3 2 1 2 1 4 2 2 4 6 18
20 20 19 19 19 17 17 16 17 18 19 20 21 23 25 24 20 4 2 3 6 7 5 5 4 5 0 2 1 4 3 7 3 1 2 2 2 4 2 3 2 5 5 13 14
18 22 21 20 20 19 19 18 17 18 19 21 22 24 24 20 4 3 1 3 4 4 4 6 6 2 2 3 4 4 5 4 3 3 2 1 1 4 5 5 6 8 9 7 8
18 17 20 21 19 21 20 20 19 18 18 20 22 25 21 6 4 3 2 4 2 4 7 4 2 1 3 4 4 3 7 4 3 3 4 3 1 3 7 5 5 6 9 6 6
19 18 17 18 17 19 22 20 19 19 19 20 21 22 8 3 7 2 4 3 2 3 3 2 2 1 3 2 4 4 3 5 1 4 5 3 6 6 6 4 7 7 7 7 6
20 20 19 18 18 18 21 22 18 19 20 19 20 14 1 4 3 0 4 2 2 3 6 4 1 3 4 3 1 4 4 7 6 6 5 5 3 5 4 7 8 8 7 6 7
20 20 20 20 18 17 14 19 18 18 20 18 15 4 2 10 4 3 3 2 2 2 1 3 1 3 2 5 3 3 6 7 6 5 5 2 5 9 4 9 8 7 6 4 7
21 22 21 21 21 20 19 18 19 20 18 16 9 2 6 3 5 5 3 3 3 1 2 2 2 1 2 5 5 3 2 4 4 2 2 3 6 3 4 9 8 7 6 4 4
23 24 24 23 20 19 20 20 20 16 15 11 3 3 7 2 3 4 3 2 5 4 1 1 3 1 3 2 3 3 4 5 7 2 3 3 6 2 5 6 7 7 6 3 5
24 24 24 20 15 15 17 18 14 10 4 3 3 2 3 2 3 3 3 2 1 2 1 2 4 2 3 3 3 3 4 5 5 2 3 3 13 6 6 6 8 6 2 5 7
25 22 20 18 17 13 9 5 3 2 2 5 2 3 1 1 2 1 1 1 0 1 3 1 2 5 8 8 3 2 4 7 4 4 4 7 12 10 9 7 7 5 5 5 8
21 18 17 15 11 9 5 3 4 2 6 5 7 4 1 1 1 1 2 1 2 3 2 1 7 8 5 2 5 4 5 7 6 1 1 5 12 7 7 3 4 6 3 5 9
18 18 15 14 7 4 7 6 6 2 3 4 2 2 2 1 3 5 4 3 5 3 5 6 3 4 4 3 4 3 5 4 5 6 5 4 7 4 2 6 8 4 3 3 7
16 16 15 13 1 6 4 8 5 2 2 4 2 1 0 1 3 2 1 1 2 3 3 5 2 3 3 4 5 3 1 2 4 4 2 4 5 3 2 2 4 4 5 7 10
15 15 13 7 5 4 6 8 3 1 4 2 2 2 2 1 4 0 1 2 3 2 3 5 3 4 4 3 2 5 0 2 1 1 4 2 2 3 4 3 4 6 8 9 9
14 15 9 3 4 5 9 6 2 3 5 1 1 1 3 1 2 2 2 1 1 2 2 7 1 0 2 1 0 3 2 1 1 2 1 2 3 2 2 4 5 5 8 10 12
14 12 9 5 1 7 8 1 3 4 3 2 1 1 1 3 3 4 1 2 1 3 3 4 2 1 1 0 1 3 4 3 4 0 4 2 1 5 1 2 4 6 10 13 12
13 11 6 4 6 8 3 3 3 4 2 2 1 3 4 4 2 3 2 2 3 3 1 1 4 2 1 1 3 1 4 3 3 2 4 1 5 4 2 4 1 6 9 9 12
10 5 4 4 5 4 3 2 7 2 3 5 7 1 1 1 1 5 1 1 3 2 1 1 4 2 3 1 2 1 1 1 1 2 2 2 3 1 3 5 7 8 9 11 13
5 2 3 5 4 1 3 4 3 3 4 4 2 2 3 4 5 4 3 3 2 5 1 1 4 1 2 1 2 2 3 1 1 2 4 4 3 3 4 9 9 10 11 12 14
1 2 2 3 0 3 3 4 2 4 5 3 2 2 2 2 1 3 3 1 3 2 2 3 2 4 1 4 4 2 0 1 0 2 3 3 4 5 6 5 8 9 8 10 13
3 0 3 0 3 1 3 3 2 3 4 2 1 1 2 2 3 3 3 1 2 1 3 1 3 4 5 1 1 1 1 1 2 3 1 2 5 2 5 5 2 9 7 10 11
3 2 1 2 3 2 3 2 3 2 2 2 1 1 1 3 3 3 2 3 3 3 4 1 2 3 5 4 2 3 3 4 2 2 5 4 5 1 4 5 2 7 7 10 12
3 1 2 2 1 5 3 3 1 3 2 2 1 2 1 3 4 3 4 3 5 4 6 2 2 4 3 1 2 1 2 4 4 2 2 5 4 3 7 5 7 4 4 8 10
3 3 4 2 2 2 1 1 4 2 1 2 2 3 1 3 3 4 2 2 5 3 4 3 3 3 8 10 8 6 7 6 7 5 4 4 4 6 6 3 7 4 7 7 11
5 3 3 1 5 5 2 3 4 2 4 3 2 1 3 3 3 4 3 3 3 2 3 3 3 2 4 8 9 12 14 10 9 4 7 2 9 5 3 2 4 5 6 7 9
6 4 5 4 3 4 4 4 5 4 1 2 2 1 5 5 3 5 4 6 3 2 4 4 2 1 3 5 3 6 8 11 4 2 6 5 6 4 1 0 3 4 6 6 9
Wind_Direction
321 319 321 324 325 331 337 339 339 338 339 343 343 343 341 334 329 337 220 196 295 312 321 327 25 259 257 261 168 89 80 237 254 233 305 311 99 31 112 108 48 51 127 146 144
317 311 307 310 315 317 321 327 330 334 336 338 340 337 337 333 329 290 203 279 311 325 339 6 341 360 271 221 188 117 157 222 231 177 212 288 194 177 147 149 221 70 58 131 139
307 306 303 303 304 307 311 313 319 324 330 332 334 334 334 329 323 226 179 319 327 344 341 308 294 263 239 136 203 186 214 221 234 183 174 226 266 197 165 230 206 182 171 162 147
320 319 303 298 301 300 305 305 310 316 322 327 331 334 333 335 315 180 345 328 344 324 324 329 328 243 235 221 215 219 238 234 250 196 175 205 220 200 198 227 173 155 157 157 161
332 329 317 316 298 304 302 298 299 310 316 323 328 331 342 310 255 215 343 329 337 326 319 298 56 350 257 301 307 231 285 298 266 215 238 203 229 228 232 189 151 148 152 159 150
335 331 322 326 312 293 292 290 289 306 313 315 323 323 218 262 174 295 353 330 328 2 23 41 131 234 267 261 275 325 291 278 278 247 243 212 253 153 271 164 168 167 179 178 156
339 331 320 313 313 310 294 294 287 296 300 308 319 304 261 245 231 280 308 313 10 6 85 55 53 32 345 301 349 293 304 301 253 249 220 143 270 233 214 163 168 192 206 173 164
342 336 328 317 307 300 298 295 292 292 292 306 312 197 249 245 244 260 245 301 232 198 98 135 359 160 179 316 329 275 285 332 299 116 263 163 273 258 173 153 186 208 226 171 191
345 340 335 323 312 300 295 297 297 291 289 301 251 182 270 265 231 217 242 292 286 254 218 143 45 92 11 66 351 319 280 269 304 153 141 191 275 248 188 182 205 219 229 229 346
347 348 347 337 328 314 302 296 298 295 325 166 251 345 273 268 189 206 224 286 4 84 48 68 47 51 24 89 242 234 267 259 243 308 222 236 263 253 239 227 226 220 244 14 326
353 350 348 353 347 344 344 344 28 34 191 208 147 259 23 220 212 161 158 273 57 30 207 192 48 228 229 204 212 235 253 255 259 258 236 234 260 266 248 233 215 190 57 338 317
355 355 349 348 348 4 355 50 61 306 310 298 273 223 125 311 187 359 303 8 153 238 154 14 234 228 223 185 203 255 276 280 287 192 230 273 274 279 257 201 150 113 47 323 326
354 353 341 338 326 29 58 59 349 12 261 296 326 88 240 334 204 229 162 160 219 256 207 200 248 143 191 199 209 239 220 253 261 323 253 322 286 322 344 97 107 124 54 307 273
348 353 334 336 23 356 65 8 10 38 320 275 239 331 340 21 271 65 276 232 213 260 283 238 242 208 222 243 149 266 160 312 317 8 277 45 284 258 209 299 139 40 335 317 320
341 352 352 352 348 58 331 350 11 89 2 332 284 291 352 164 325 165 321 11 235 248 49 266 201 216 237 231 162 229 246 254 237 237 5 213 127 265 111 286 240 327 336 320 307
333 350 359 342 20 12 348 349 111 54 259 234 260 297 6 97 278 294 284 342 258 302 227 242 324 278 206 120 21 338 334 60 91 103 320 237 188 262 191 215 292 297 317 313 316
326 342 356 1 338 348 352 38 54 181 259 127 7 332 308 262 277 204 275 295 141 25 340 312 200 322 147 243 28 61 47 334 359 242 238 272 214 250 246 100 220 299 309 317 312
315 306 316 2 357 355 46 73 169 260 19 196 217 291 230 7 244 307 235 306 55 75 64 315 304 197 91 135 180 145 129 156 270 319 293 211 241 270 138 142 261 267 275 300 314
314 288 265 342 347 350 89 83 201 216 332 353 336 357 167 53 201 15 352 41 41 81 183 336 271 124 66 123 149 189 119 136 119 238 297 236 272 358 212 278 344 322 331 324 324
310 270 255 329 327 107 86 233 208 35 348 24 194 33 304 349 2 355 309 341 105 37 49 256 295 205 137 101 47 133 127 61 18 296 280 285 274 231 284 298 318 328 323 325 325
284 31 276 324 260 61 198 218 164 102 73 35 326 317 239 279 298 288 270 43 43 308 346 155 103 288 40 208 167 97 265 144 200 168 196 295 269 206 224 252 278 304 309 313 319
132 324 344 315 62 64 216 208 132 55 85 80 249 299 276 297 272 247 276 247 60 123 170 171 166 259 240 89 69 76 214 161 162 259 156 165 278 267 221 240 202 292 324 311 316
165 223 310 276 142 214 272 237 185 174 109 85 269 195 76 267 267 243 258 136 187 211 194 316 237 325 344 15 47 219 196 137 123 86 217 144 266 244 261 294 302 285 337 323 323
132 41 335 28 176 146 208 183 192 49 89 98 16 7 266 250 238 281 288 197 202 226 187 148 258 219 222 182 101 237 215 190 161 135 209 232 294 273 274 299 313 336 316 316 328
178 203 177 214 251 114 65 163 190 181 189 131 182 230 261 279 314 253 263 270 198 247 183 169 238 218 257 258 256 244 250 194 190 203 182 264 210 249 275 250 277 324 323 344 351
145 151 38 188 127 138 146 203 214 203 159 171 199 205 216 244 249 307 320 228 268 154 185 182 276 239 273 252 238 249 245 225 220 228 259 195 286 193 255 183 338 332 332 346 353
181 117 119 166 130 133 202 186 204 159 294 158 164 112 267 279 316 315 306 295 292 257 212 173 262 293 267 1 338 277 235 199 180 188 155 198 229 139 162 52 335 327 339 341 337